Regional Weather Roundup
Issued by NWS Wilmington, NC

Current Version | Previous Version | Text Only | Print | Product List | Glossary On
Versions: 1 2 3 4 5 6 7 8 9 10 11 12 13 14 15 16 17 18 19 20 21 22 23 24 25 26 27
000
ASUS42 KILM 251113
RWRILM
RWRILM
REGIONAL HOURLY WEATHER ROUNDUP
NATIONAL WEATHER SERVICE WILMINGTON NC
700 AM EDT SUN JUN 25 2017

NOTE: "FAIR" INDICATES FEW OR NO CLOUDS BELOW 12,000 FEET WITH NO
SIGNIFICANT WEATHER AND/OR OBSTRUCTIONS TO VISIBILITY.

...............WFO WILMINGTON COUNTY WARNING AREA...............

......COASTAL NC AND SC COUNTIES......

CITY           SKY/WX    TMP DP  RH WIND       PRES   REMARKS
WILMINGTON     CLOUDY    77  75  93 SW6       30.03S
N MYRTLE BEACH MOCLDY    76  74  93 CALM      30.03R
MYRTLE BEACH   PTCLDY    75  73  94 W6        30.04

......INLAND NC AND SC COUNTIES.......

CITY           SKY/WX    TMP DP  RH WIND       PRES   REMARKS
LUMBERTON      CLOUDY    75  75 100 SW3       30.03R
ELIZABETHTOWN  NOT AVBL
WHITEVILLE     CLOUDY    75  73  94 CALM      30.03R
FLORENCE       CLOUDY    75  74  96 CALM      30.04R
DARLINGTON     CLOUDY    74  73  97 SW5       30.04S
KINGSTREE      CLOUDY    73  72  94 CALM      30.04S
HARTSVILLE     FAIR      70  70 100 CALM      30.04S
BENNETTSVILLE  FAIR      75  75 100 CALM      30.03S FOG
CONWAY         FAIR      73  72  94 CALM      30.04S
GEORGETOWN     FAIR      73  73 100 W3        30.05S
MARION         CLOUDY    73  72  94 CALM      30.04S FOG

....................REST OF NORTH CAROLINA......................

.........EASTERN NC.........

CITY           SKY/WX    TMP DP  RH WIND       PRES   REMARKS
CAPE HATTERAS  CLOUDY    77  74  90 SW9       30.02R FOG
JACKSONVILLE   CLOUDY    75  74  96 SW5       30.03S
MOREHEAD CITY  CLOUDY    79  78  97 W9        30.02R
KENANSVILLE    CLOUDY    75  73  94 W3        30.03S FOG
NEW BERN       CLOUDY    75  75 100 CALM      30.03S
ELIZABETH CITY CLOUDY    73  73 100 W7        30.02R

.........CENTRAL NC.........

CITY           SKY/WX    TMP DP  RH WIND       PRES   REMARKS
RALEIGH DURHAM CLOUDY    70  70 100 SW3       30.05R
ROCKY MOUNT    CLOUDY    71  71 100 CALM      30.03R
ROANOKE RAPIDS NOT AVBL
FAYETTEVILLE   CLOUDY    78  76  93 SW6       30.02R
HOFFMAN        CLOUDY    73  72  94 NW5       30.04R

.........WESTERN NC.........

CITY           SKY/WX    TMP DP  RH WIND       PRES   REMARKS
CHARLOTTE      MOCLDY    69  66  90 CALM      30.07R
GREENSBORO     MOCLDY    70  66  87 N5        30.07R
HICKORY        NOT AVBL
BOONE          NOT AVBL
ASHEVILLE      NOT AVBL

.....................REST OF SOUTH CAROLINA.....................

.........EASTERN SC.........

CITY           SKY/WX    TMP DP  RH WIND       PRES   REMARKS
CHARLESTON     PTCLDY    78  73  84 W5        30.05R
BEAUFORT MCAS  PTCLDY    78  76  93 CALM      30.05R
HILTON HEAD    CLEAR     77  77 100 CALM      30.05R

.........CENTRAL SC.........

CITY           SKY/WX    TMP DP  RH WIND       PRES   REMARKS
COLUMBIA       CLOUDY    73  70  90 W3        30.05R
ORANGEBURG     CLOUDY    74  73  97 SW6       30.07R
SUMTER SHAW    MOCLDY    73  71  92 W3        30.02S

.........WESTERN SC.........

CITY           SKY/WX    TMP DP  RH WIND       PRES   REMARKS
GREENVILLE     NOT AVBL
ROCK HILL      PTCLDY    69  67  93 CALM      30.08R
ANDERSON       FOG       70  69  97 CALM      30.09R VSB 1/4
CLEMSON        NOT AVBL
GREENWOOD      FOG       69  67  93 CALM      30.09S VSB 1/4


...................COASTAL AND OFFSHORE REPORTS..................

................LOCAL PIERS AND NC RESERVE................


STATION/POSITION TIME  SKY/WX   TEMP    WIND        PRES    VSBY
                                AIR SEA DIR/SP/G
                 (UTC)          (F)     (DEG/KT/KT) (MB)    (MI)
JOHNY MRCER PIER 1048            77 80  270/  5/  8 1016.0R
NC RESRV MASNBRO 0945            76     250/  3     1017.0
OCEAN CREST PIER NOT AVBL
SPRINGMAID  PIER 1048                               1016.4R


................COASTAL AND OFFSHORE BUOYS................


STATION/POSITION TIME  SKY/WX   TEMP    WIND        PRES    VSBY
                                AIR SEA DIR/SP/G
                 (UTC)          (F)     (DEG/KT/KT) (MB)    (MI)
DIMNDSHOAL 41025 1050            79 80  250/ 17/ 21 1016.0R
WVE H/P(F/S)=  6/ 7 SWL H/P/D(F/S/D)=  2/140/ 9

CAPE LOOKOUT     1100            79     240/  6/  9 1016.4R
ONSLOW BAY 41036 NOT AVBL
ONSLOW BAY 41064 1008            80 80  240/ 16/ 21 1016.6R
ONSLOW BAY 41159 1043               80                N/A
WVE H/P(F/S)=  5/ 6

MASNBO INL 41110 1059               79                N/A
WVE H/P(F/S)=  3/ 7

WILM HARBR 41108 NOT AVBL
27SE WRITB 41037 1008            79 80  220/ 14/ 17 1016.1R
FRYING PAN 41013 1100            80 80  230/ 17/ 21 1016.8
SUNST NRSH 41024 1008            78 79  290/  6/  8 1016.7R
CAPRS NRSH 41029 1008            86 83  240/ 14/ 19 1016.6R
EDISTO     41004 1050            81 81  220/ 16/ 21 1016.9R
WVE H/P(F/S)=  5/ 5 SWL H/P/D(F/S/D)=  2/140/ 8



..........OFFSHORE BUOYS BEYOND 100 NM OFFSHORE...........
.....IN A TRIANGLE---HAT TO BERMUDA TO BAHAMAS TO HAT.....


STATION/POSITION TIME  SKY/WX   TEMP    WIND        PRES    VSBY
                                AIR SEA DIR/SP/G
                 (UTC)          (F)     (DEG/KT/KT) (MB)    (MI)
150E HAT   41001 1050            79 79  220/ 17/ 21 1018.3R
WVE H/P(F/S)=  7/ 7 SWL H/P/D(F/S/D)=  2/220/10

W BERMUDA  41048 1100            80 80  230/  6/  8 1022.1
ATLANTIC S 41049 1050            81 82  100/ 10/ 12 1023.5R
WVE H/P(F/S)=  3/ 8 SWL H/P/D(F/S/D)=  3/100/ 8

E BAHAMAS  41046 1100            82 83  100/ 14/ 17 1020.8
NE BAHAMAS 41047 1100            81 83  130/ 12/ 14 1021.5
120E CANVRL41010 1100            82 83  180/ 10/ 12 1020.0

END




USA.gov is the U.S. government's official web portal to all federal, state and local government web resources and services.